Location: Mountain Grove
(34.0887°N, 86.6172°W)
Time: 00:00:52
(UTC+00:00)

OAO 3 Copernicus - Pass Details

Date: 14 July 2020
Orbit: 695 x 704 km, 35.0° (Epoch: 12 August)

Event Time Altitude Azimuth Distance (km) Brightness Sun altitude
Rises 01:23:52 0° 259° (W) 3,077 8.5 -5.3°
Reaches altitude 10° 01:26:17 10° 260° (W) 2,160 7.6 -5.7°
Maximum altitude 01:31:22 90° 248° (WSW) 704 4.4 -6.6°
Drops below altitude 10° 01:36:27 10° 81° (E) 2,159 6.4 -7.5°
Enters shadow 01:38:27 - 81° (E) 2,921 7.1 -7.9°
